owner,sensor,date,latitude,longitude,sea_surface_height_above_sea_level,qcFlag 
TCOON,ioos:station:TCOON:005:1,2016-02-01T15:42:00Z,27.6346,-97.2370,0.95,1111122 
TCOON,ioos:station:TCOON:005:1,2016-02-01T16:48:00Z,27.6346,-97.2370,0.949,1111122 
TCOON,ioos:station:TCOON:005:1,2016-02-01T17:42:00Z,27.6346,-97.2370,0.947,1111122 
TCOON,ioos:station:TCOON:005:1,2016-02-01T18:42:00Z,27.6346,-97.2370,0.954,1111122 
TCOON,ioos:station:TCOON:005:1,2016-02-01T19:36:00Z,27.6346,-97.2370,0.961,1111122 
TCOON,ioos:station:TCOON:005:1,2016-02-01T20:36:00Z,27.6346,-97.2370,0.969,1111122 
TCOON,ioos:station:TCOON:005:1,2016-02-01T21:30:00Z,27.6346,-97.2370,0.974,1111122 
TCOON,ioos:station:TCOON:005:1,2016-02-01T22:30:00Z,27.6346,-97.2370,0.982,1111122 
TCOON,ioos:station:TCOON:005:1,2016-02-01T23:30:00Z,27.6346,-97.2370,0.988,1111122 
TCOON,ioos:station:TCOON:005:1,2016-02-02T00:30:00Z,27.6346,-97.2370,0.991,1111122 
TCOON,ioos:station:TCOON:005:1,2016-02-02T01:30:00Z,27.6346,-97.2370,0.989,1111122 
TCOON,ioos:station:TCOON:005:1,2016-02-02T02:30:00Z,27.6346,-97.2370,0.965,1111122 
TCOON,ioos:station:TCOON:005:1,2016-02-02T03:30:00Z,27.6346,-97.2370,0.98,1111122 
TCOON,ioos:station:TCOON:005:1,2016-02-02T04:30:00Z,27.6346,-97.2370,0.987,1111122 
TCOON,ioos:station:TCOON:005:1,2016-02-02T05:30:00Z,27.6346,-97.2370,0.99,1111122 
TCOON,ioos:station:TCOON:005:1,2016-02-02T06:30:00Z,27.6346,-97.2370,0.999,1111122 
TCOON,ioos:station:TCOON:005:1,2016-02-02T07:30:00Z,27.6346,-97.2370,0.999,1111122 
TCOON,ioos:station:TCOON:005:1,2016-02-02T08:30:00Z,27.6346,-97.2370,0.995,1111122 
TCOON,ioos:station:TCOON:005:1,2016-02-02T09:42:00Z,27.6346,-97.2370,1.021,1111122 
TCOON,ioos:station:TCOON:005:1,2016-02-02T10:30:00Z,27.6346,-97.2370,1.024,1111122 
TCOON,ioos:station:TCOON:005:1,2016-02-02T11:30:00Z,27.6346,-97.2370,0.996,1111122 
TCOON,ioos:station:TCOON:005:1,2016-02-02T12:30:00Z,27.6346,-97.2370,0.983,1111122 
TCOON,ioos:station:TCOON:005:1,2016-02-02T13:30:00Z,27.6346,-97.2370,1.0,1111122 
TCOON,ioos:station:TCOON:005:1,2016-02-02T14:30:00Z,27.6346,-97.2370,1.013,1111122 
TCOON,ioos:station:TCOON:005:1,2016-02-02T15:30:00Z,27.6346,-97.2370,1.008,1111122 
TCOON,ioos:station:TCOON:005:1,2016-02-02T18:42:00Z,27.6346,-97.2370,1.007,1111122 
TCOON,ioos:station:TCOON:005:1,2016-02-02T19:24:00Z,27.6346,-97.2370,1.013,1111122 
TCOON,ioos:station:TCOON:005:1,2016-02-02T20:30:00Z,27.6346,-97.2370,1.028,1111122 
TCOON,ioos:station:TCOON:005:1,2016-02-02T21:30:00Z,27.6346,-97.2370,1.043,1111122 
TCOON,ioos:station:TCOON:005:1,2016-02-02T22:24:00Z,27.6346,-97.2370,1.06,1111122 
TCOON,ioos:station:TCOON:005:1,2016-02-02T23:24:00Z,27.6346,-97.2370,1.073,1111122 
TCOON,ioos:station:TCOON:005:1,2016-02-03T00:24:00Z,27.6346,-97.2370,1.084,1111122 
TCOON,ioos:station:TCOON:005:1,2016-02-03T01:24:00Z,27.6346,-97.2370,1.095,1111122 
TCOON,ioos:station:TCOON:005:1,2016-02-03T02:24:00Z,27.6346,-97.2370,1.106,1111122 
TCOON,ioos:station:TCOON:005:1,2016-02-03T03:24:00Z,27.6346,-97.2370,1.118,1111122 
TCOON,ioos:station:TCOON:005:1,2016-02-03T04:30:00Z,27.6346,-97.2370,1.132,1111122 
TCOON,ioos:station:TCOON:005:1,2016-02-03T05:24:00Z,27.6346,-97.2370,1.144,1111122 
TCOON,ioos:station:TCOON:005:1,2016-02-03T06:30:00Z,27.6346,-97.2370,1.139,1111122 
TCOON,ioos:station:TCOON:005:1,2016-02-03T07:24:00Z,27.6346,-97.2370,1.142,1111122 
TCOON,ioos:station:TCOON:005:1,2016-02-03T08:30:00Z,27.6346,-97.2370,1.137,1111122 
TCOON,ioos:station:TCOON:005:1,2016-02-03T09:42:00Z,27.6346,-97.2370,1.13,1111122 
TCOON,ioos:station:TCOON:005:1,2016-02-03T10:30:00Z,27.6346,-97.2370,1.12,1111122 
TCOON,ioos:station:TCOON:005:1,2016-02-03T11:24:00Z,27.6346,-97.2370,1.108,1111122 
TCOON,ioos:station:TCOON:005:1,2016-02-03T12:24:00Z,27.6346,-97.2370,1.115,1111122 
TCOON,ioos:station:TCOON:005:1,2016-02-03T13:24:00Z,27.6346,-97.2370,1.115,1111122 
TCOON,ioos:station:TCOON:005:1,2016-02-03T14:30:00Z,27.6346,-97.2370,1.102,1111122 
TCOON,ioos:station:TCOON:005:1,2016-02-03T15:30:00Z,27.6346,-97.2370,1.088,1111122 
TCOON,ioos:station:TCOON:005:1,2016-02-03T16:30:00Z,27.6346,-97.2370,1.061,1111122 
TCOON,ioos:station:TCOON:005:1,2016-02-03T17:24:00Z,27.6346,-97.2370,1.045,1111122 
TCOON,ioos:station:TCOON:005:1,2016-02-03T18:24:00Z,27.6346,-97.2370,1.041,1111122 
TCOON,ioos:station:TCOON:005:1,2016-02-03T19:30:00Z,27.6346,-97.2370,1.05,1111122 
TCOON,ioos:station:TCOON:005:1,2016-02-03T20:30:00Z,27.6346,-97.2370,1.066,1111122 
TCOON,ioos:station:TCOON:005:1,2016-02-03T21:30:00Z,27.6346,-97.2370,1.084,1111122 
TCOON,ioos:station:TCOON:005:1,2016-02-03T22:24:00Z,27.6346,-97.2370,1.097,1111122 
TCOON,ioos:station:TCOON:005:1,2016-02-03T23:24:00Z,27.6346,-97.2370,1.108,1111122 
TCOON,ioos:station:TCOON:005:1,2016-02-04T00:24:00Z,27.6346,-97.2370,1.121,1111122 
TCOON,ioos:station:TCOON:005:1,2016-02-04T01:24:00Z,27.6346,-97.2370,1.135,1111122 
TCOON,ioos:station:TCOON:005:1,2016-02-04T02:24:00Z,27.6346,-97.2370,1.148,1111122 
TCOON,ioos:station:TCOON:005:1,2016-02-04T03:24:00Z,27.6346,-97.2370,1.151,1111122 
TCOON,ioos:station:TCOON:005:1,2016-02-04T04:24:00Z,27.6346,-97.2370,1.152,1111122 
TCOON,ioos:station:TCOON:005:1,2016-02-04T05:24:00Z,27.6346,-97.2370,1.149,1111122 
TCOON,ioos:station:TCOON:005:1,2016-02-04T06:24:00Z,27.6346,-97.2370,1.14,1111122 
TCOON,ioos:station:TCOON:005:1,2016-02-04T07:24:00Z,27.6346,-97.2370,1.136,1111122 
TCOON,ioos:station:TCOON:005:1,2016-02-04T08:24:00Z,27.6346,-97.2370,1.128,1111122 
TCOON,ioos:station:TCOON:005:1,2016-02-04T09:48:00Z,27.6346,-97.2370,1.119,1111122 
TCOON,ioos:station:TCOON:005:1,2016-02-04T10:24:00Z,27.6346,-97.2370,1.114,1111122 
TCOON,ioos:station:TCOON:005:1,2016-02-04T11:24:00Z,27.6346,-97.2370,1.099,1111122 
TCOON,ioos:station:TCOON:005:1,2016-02-04T12:24:00Z,27.6346,-97.2370,1.09,1111122 
TCOON,ioos:station:TCOON:005:1,2016-02-04T13:30:00Z,27.6346,-97.2370,1.087,1111122 
TCOON,ioos:station:TCOON:005:1,2016-02-04T14:24:00Z,27.6346,-97.2370,1.076,1111122 
TCOON,ioos:station:TCOON:005:1,2016-02-04T15:30:00Z,27.6346,-97.2370,1.045,1111122 
TCOON,ioos:station:TCOON:005:1,2016-02-04T16:30:00Z,27.6346,-97.2370,1.019,1111122 
TCOON,ioos:station:TCOON:005:1,2016-02-04T17:36:00Z,27.6346,-97.2370,1.004,1111122 
TCOON,ioos:station:TCOON:005:1,2016-02-04T18:30:00Z,27.6346,-97.2370,1.0,1111122 
TCOON,ioos:station:TCOON:005:1,2016-02-04T19:30:00Z,27.6346,-97.2370,1.003,1111122 
TCOON,ioos:station:TCOON:005:1,2016-02-04T20:30:00Z,27.6346,-97.2370,1.014,1111122 
TCOON,ioos:station:TCOON:005:1,2016-02-04T21:30:00Z,27.6346,-97.2370,1.037,1111122 
TCOON,ioos:station:TCOON:005:1,2016-02-04T22:36:00Z,27.6346,-97.2370,1.051,1111122 
TCOON,ioos:station:TCOON:005:1,2016-02-04T23:30:00Z,27.6346,-97.2370,1.057,1111122 
TCOON,ioos:station:TCOON:005:1,2016-02-05T00:24:00Z,27.6346,-97.2370,1.057,1111122 
TCOON,ioos:station:TCOON:005:1,2016-02-05T01:24:00Z,27.6346,-97.2370,1.065,1111122 
TCOON,ioos:station:TCOON:005:1,2016-02-05T02:24:00Z,27.6346,-97.2370,1.071,1111122 
TCOON,ioos:station:TCOON:005:1,2016-02-05T03:24:00Z,27.6346,-97.2370,1.077,1111122 
TCOON,ioos:station:TCOON:005:1,2016-02-05T04:24:00Z,27.6346,-97.2370,1.081,1111122 
TCOON,ioos:station:TCOON:005:1,2016-02-05T05:24:00Z,27.6346,-97.2370,1.085,1111122 
TCOON,ioos:station:TCOON:005:1,2016-02-05T06:30:00Z,27.6346,-97.2370,1.084,1111122 
TCOON,ioos:station:TCOON:005:1,2016-02-05T07:24:00Z,27.6346,-97.2370,1.077,1111122 
TCOON,ioos:station:TCOON:005:1,2016-02-05T08:24:00Z,27.6346,-97.2370,1.072,1111122 
TCOON,ioos:station:TCOON:005:1,2016-02-05T10:06:00Z,27.6346,-97.2370,1.047,1111122 
TCOON,ioos:station:TCOON:005:1,2016-02-05T11:24:00Z,27.6346,-97.2370,1.011,1111122 
TCOON,ioos:station:TCOON:005:1,2016-02-05T12:24:00Z,27.6346,-97.2370,0.999,1111122 
TCOON,ioos:station:TCOON:005:1,2016-02-05T13:24:00Z,27.6346,-97.2370,0.981,1111122 
TCOON,ioos:station:TCOON:005:1,2016-02-05T14:24:00Z,27.6346,-97.2370,0.973,1111122 
TCOON,ioos:station:TCOON:005:1,2016-02-05T15:24:00Z,27.6346,-97.2370,0.955,1111122 
TCOON,ioos:station:TCOON:005:1,2016-02-05T16:24:00Z,27.6346,-97.2370,0.944,1111122 
TCOON,ioos:station:TCOON:005:1,2016-02-05T17:24:00Z,27.6346,-97.2370,0.947,1111122 
TCOON,ioos:station:TCOON:005:1,2016-02-05T18:24:00Z,27.6346,-97.2370,0.956,1111122 
TCOON,ioos:station:TCOON:005:1,2016-02-05T19:24:00Z,27.6346,-97.2370,0.957,1111122 
TCOON,ioos:station:TCOON:005:1,2016-02-05T20:24:00Z,27.6346,-97.2370,0.973,1111122 
TCOON,ioos:station:TCOON:005:1,2016-02-05T21:30:00Z,27.6346,-97.2370,0.991,1111122 
TCOON,ioos:station:TCOON:005:1,2016-02-05T23:54:00Z,27.6346,-97.2370,1.029,1111122 
TCOON,ioos:station:TCOON:005:1,2016-02-06T00:36:00Z,27.6346,-97.2370,1.042,1111122 
TCOON,ioos:station:TCOON:005:1,2016-02-06T01:18:00Z,27.6346,-97.2370,1.053,1111122 
TCOON,ioos:station:TCOON:005:1,2016-02-06T02:18:00Z,27.6346,-97.2370,1.072,1111122 
TCOON,ioos:station:TCOON:005:1,2016-02-06T03:18:00Z,27.6346,-97.2370,1.082,1111122 
TCOON,ioos:station:TCOON:005:1,2016-02-06T04:18:00Z,27.6346,-97.2370,1.097,1111122 
TCOON,ioos:station:TCOON:005:1,2016-02-06T05:24:00Z,27.6346,-97.2370,1.108,1111122 
TCOON,ioos:station:TCOON:005:1,2016-02-06T06:24:00Z,27.6346,-97.2370,1.114,1111122 
TCOON,ioos:station:TCOON:005:1,2016-02-06T07:24:00Z,27.6346,-97.2370,1.116,1111122 
TCOON,ioos:station:TCOON:005:1,2016-02-06T08:24:00Z,27.6346,-97.2370,1.117,1111122 
TCOON,ioos:station:TCOON:005:1,2016-02-06T09:30:00Z,27.6346,-97.2370,1.11,1111122 
TCOON,ioos:station:TCOON:005:1,2016-02-06T10:18:00Z,27.6346,-97.2370,1.094,1111122 
TCOON,ioos:station:TCOON:005:1,2016-02-06T11:24:00Z,27.6346,-97.2370,1.085,1111122 
TCOON,ioos:station:TCOON:005:1,2016-02-06T12:24:00Z,27.6346,-97.2370,1.074,1111122 
TCOON,ioos:station:TCOON:005:1,2016-02-06T13:24:00Z,27.6346,-97.2370,1.061,1111122 
TCOON,ioos:station:TCOON:005:1,2016-02-06T14:24:00Z,27.6346,-97.2370,1.071,1111122 
TCOON,ioos:station:TCOON:005:1,2016-02-06T15:24:00Z,27.6346,-97.2370,1.06,1111122 
TCOON,ioos:station:TCOON:005:1,2016-02-06T16:24:00Z,27.6346,-97.2370,1.043,1111122 
TCOON,ioos:station:TCOON:005:1,2016-02-06T17:18:00Z,27.6346,-97.2370,1.026,1111122 
TCOON,ioos:station:TCOON:005:1,2016-02-06T18:24:00Z,27.6346,-97.2370,1.018,1111122 
TCOON,ioos:station:TCOON:005:1,2016-02-06T19:24:00Z,27.6346,-97.2370,1.018,1111122 
TCOON,ioos:station:TCOON:005:1,2016-02-06T20:24:00Z,27.6346,-97.2370,1.025,1111122 
TCOON,ioos:station:TCOON:005:1,2016-02-06T21:24:00Z,27.6346,-97.2370,1.051,1111122 
TCOON,ioos:station:TCOON:005:1,2016-02-06T22:24:00Z,27.6346,-97.2370,1.052,1111122 
TCOON,ioos:station:TCOON:005:1,2016-02-06T23:18:00Z,27.6346,-97.2370,1.055,1111122 
TCOON,ioos:station:TCOON:005:1,2016-02-07T00:18:00Z,27.6346,-97.2370,1.052,1111122 
TCOON,ioos:station:TCOON:005:1,2016-02-07T01:18:00Z,27.6346,-97.2370,1.056,1111122 
TCOON,ioos:station:TCOON:005:1,2016-02-07T02:18:00Z,27.6346,-97.2370,1.059,1111122 
TCOON,ioos:station:TCOON:005:1,2016-02-07T03:18:00Z,27.6346,-97.2370,1.06,1111122 
TCOON,ioos:station:TCOON:005:1,2016-02-07T04:18:00Z,27.6346,-97.2370,1.059,1111122 
TCOON,ioos:station:TCOON:005:1,2016-02-07T05:24:00Z,27.6346,-97.2370,1.057,1111122 
TCOON,ioos:station:TCOON:005:1,2016-02-07T06:24:00Z,27.6346,-97.2370,1.054,1111122 
TCOON,ioos:station:TCOON:005:1,2016-02-07T07:24:00Z,27.6346,-97.2370,1.051,1111122 
TCOON,ioos:station:TCOON:005:1,2016-02-07T08:24:00Z,27.6346,-97.2370,1.049,1111122 
TCOON,ioos:station:TCOON:005:1,2016-02-07T09:48:00Z,27.6346,-97.2370,1.038,1111122 
TCOON,ioos:station:TCOON:005:1,2016-02-07T10:24:00Z,27.6346,-97.2370,1.034,1111122 
TCOON,ioos:station:TCOON:005:1,2016-02-07T11:24:00Z,27.6346,-97.2370,1.018,1111122 
TCOON,ioos:station:TCOON:005:1,2016-02-07T12:18:00Z,27.6346,-97.2370,1.004,1111122 
TCOON,ioos:station:TCOON:005:1,2016-02-07T13:18:00Z,27.6346,-97.2370,0.989,1111122 
TCOON,ioos:station:TCOON:005:1,2016-02-07T14:18:00Z,27.6346,-97.2370,0.98,1111122 
TCOON,ioos:station:TCOON:005:1,2016-02-07T15:18:00Z,27.6346,-97.2370,0.969,1111122 
TCOON,ioos:station:TCOON:005:1,2016-02-07T16:18:00Z,27.6346,-97.2370,0.941,1111122 
TCOON,ioos:station:TCOON:005:1,2016-02-07T17:18:00Z,27.6346,-97.2370,0.926,1111122 
TCOON,ioos:station:TCOON:005:1,2016-02-07T18:18:00Z,27.6346,-97.2370,0.924,1111122 
TCOON,ioos:station:TCOON:005:1,2016-02-07T19:18:00Z,27.6346,-97.2370,0.935,1111122 
TCOON,ioos:station:TCOON:005:1,2016-02-07T20:18:00Z,27.6346,-97.2370,0.939,1111122 
TCOON,ioos:station:TCOON:005:1,2016-02-07T21:18:00Z,27.6346,-97.2370,0.947,1111122 
TCOON,ioos:station:TCOON:005:1,2016-02-07T22:18:00Z,27.6346,-97.2370,0.951,1111122 
TCOON,ioos:station:TCOON:005:1,2016-02-07T23:18:00Z,27.6346,-97.2370,0.956,1111122 
TCOON,ioos:station:TCOON:005:1,2016-02-08T00:18:00Z,27.6346,-97.2370,0.967,1111122 
TCOON,ioos:station:TCOON:005:1,2016-02-08T01:18:00Z,27.6346,-97.2370,0.981,1111122 
TCOON,ioos:station:TCOON:005:1,2016-02-08T02:18:00Z,27.6346,-97.2370,0.995,1111122 
TCOON,ioos:station:TCOON:005:1,2016-02-08T03:18:00Z,27.6346,-97.2370,1.007,1111122 
TCOON,ioos:station:TCOON:005:1,2016-02-08T04:18:00Z,27.6346,-97.2370,1.023,1111122 
TCOON,ioos:station:TCOON:005:1,2016-02-08T05:18:00Z,27.6346,-97.2370,1.041,1111122 
TCOON,ioos:station:TCOON:005:1,2016-02-08T06:18:00Z,27.6346,-97.2370,1.047,1111122 
TCOON,ioos:station:TCOON:005:1,2016-02-08T07:18:00Z,27.6346,-97.2370,1.063,1111122 
TCOON,ioos:station:TCOON:005:1,2016-02-08T08:18:00Z,27.6346,-97.2370,1.073,1111122 
TCOON,ioos:station:TCOON:005:1,2016-02-08T09:42:00Z,27.6346,-97.2370,1.076,1111122 
TCOON,ioos:station:TCOON:005:1,2016-02-08T10:18:00Z,27.6346,-97.2370,1.076,1111122 
TCOON,ioos:station:TCOON:005:1,2016-02-08T11:18:00Z,27.6346,-97.2370,1.074,1111122 
TCOON,ioos:station:TCOON:005:1,2016-02-08T12:18:00Z,27.6346,-97.2370,1.082,1111122 
TCOON,ioos:station:TCOON:005:1,2016-02-08T13:18:00Z,27.6346,-97.2370,1.065,1111122 
TCOON,ioos:station:TCOON:005:1,2016-02-08T14:18:00Z,27.6346,-97.2370,1.064,1111122 
TCOON,ioos:station:TCOON:005:1,2016-02-08T15:24:00Z,27.6346,-97.2370,1.036,1111122 
TCOON,ioos:station:TCOON:005:1,2016-02-08T16:24:00Z,27.6346,-97.2370,1.006,1111122 
TCOON,ioos:station:TCOON:005:1,2016-02-08T17:24:00Z,27.6346,-97.2370,0.972,1111122 
TCOON,ioos:station:TCOON:005:1,2016-02-08T18:18:00Z,27.6346,-97.2370,0.936,1111122 
TCOON,ioos:station:TCOON:005:1,2016-02-08T19:18:00Z,27.6346,-97.2370,0.919,1111122 
TCOON,ioos:station:TCOON:005:1,2016-02-08T20:18:00Z,27.6346,-97.2370,0.92,1111122 
TCOON,ioos:station:TCOON:005:1,2016-02-08T21:18:00Z,27.6346,-97.2370,0.92,1111122 
TCOON,ioos:station:TCOON:005:1,2016-02-08T22:18:00Z,27.6346,-97.2370,0.926,1111122 
TCOON,ioos:station:TCOON:005:1,2016-02-08T23:18:00Z,27.6346,-97.2370,0.93,1111122 
TCOON,ioos:station:TCOON:005:1,2016-02-09T00:18:00Z,27.6346,-97.2370,0.928,1111122 
TCOON,ioos:station:TCOON:005:1,2016-02-09T01:18:00Z,27.6346,-97.2370,0.94,1111122 
TCOON,ioos:station:TCOON:005:1,2016-02-09T02:18:00Z,27.6346,-97.2370,0.953,1111122 
TCOON,ioos:station:TCOON:005:1,2016-02-09T03:18:00Z,27.6346,-97.2370,0.959,1111122 
TCOON,ioos:station:TCOON:005:1,2016-02-09T04:18:00Z,27.6346,-97.2370,0.964,1111122 
TCOON,ioos:station:TCOON:005:1,2016-02-09T05:18:00Z,27.6346,-97.2370,0.964,1111122 
TCOON,ioos:station:TCOON:005:1,2016-02-09T06:18:00Z,27.6346,-97.2370,0.961,1111122 
TCOON,ioos:station:TCOON:005:1,2016-02-09T07:18:00Z,27.6346,-97.2370,0.961,1111122 
TCOON,ioos:station:TCOON:005:1,2016-02-09T08:18:00Z,27.6346,-97.2370,0.958,1111122 
TCOON,ioos:station:TCOON:005:1,2016-02-09T09:36:00Z,27.6346,-97.2370,0.948,1111122 
TCOON,ioos:station:TCOON:005:1,2016-02-09T10:18:00Z,27.6346,-97.2370,0.942,1111122 
TCOON,ioos:station:TCOON:005:1,2016-02-09T11:18:00Z,27.6346,-97.2370,0.937,1111122 
TCOON,ioos:station:TCOON:005:1,2016-02-09T12:18:00Z,27.6346,-97.2370,0.928,1111122 
TCOON,ioos:station:TCOON:005:1,2016-02-09T13:18:00Z,27.6346,-97.2370,0.918,1111122 
TCOON,ioos:station:TCOON:005:1,2016-02-09T14:30:00Z,27.6346,-97.2370,0.911,1111122 
TCOON,ioos:station:TCOON:005:1,2016-02-09T15:18:00Z,27.6346,-97.2370,0.908,1111122 
TCOON,ioos:station:TCOON:005:1,2016-02-09T16:24:00Z,27.6346,-97.2370,0.874,1111122 
TCOON,ioos:station:TCOON:005:1,2016-02-09T17:18:00Z,27.6346,-97.2370,0.842,1111122 
TCOON,ioos:station:TCOON:005:1,2016-02-09T18:18:00Z,27.6346,-97.2370,0.819,1111122 
TCOON,ioos:station:TCOON:005:1,2016-02-09T19:18:00Z,27.6346,-97.2370,0.808,1111122 
TCOON,ioos:station:TCOON:005:1,2016-02-09T20:18:00Z,27.6346,-97.2370,0.795,1111122 
TCOON,ioos:station:TCOON:005:1,2016-02-09T21:24:00Z,27.6346,-97.2370,0.806,1111122 
TCOON,ioos:station:TCOON:005:1,2016-02-09T22:24:00Z,27.6346,-97.2370,0.82,1111122 
TCOON,ioos:station:TCOON:005:1,2016-02-09T23:18:00Z,27.6346,-97.2370,0.823,1111122 
TCOON,ioos:station:TCOON:005:1,2016-02-10T00:18:00Z,27.6346,-97.2370,0.82,1111122 
TCOON,ioos:station:TCOON:005:1,2016-02-10T01:18:00Z,27.6346,-97.2370,0.821,1111122 
TCOON,ioos:station:TCOON:005:1,2016-02-10T02:18:00Z,27.6346,-97.2370,0.818,1111122 
TCOON,ioos:station:TCOON:005:1,2016-02-10T03:18:00Z,27.6346,-97.2370,0.818,1111122 
TCOON,ioos:station:TCOON:005:1,2016-02-10T04:18:00Z,27.6346,-97.2370,0.821,1111122 
TCOON,ioos:station:TCOON:005:1,2016-02-10T05:24:00Z,27.6346,-97.2370,0.822,1111122 
TCOON,ioos:station:TCOON:005:1,2016-02-10T06:18:00Z,27.6346,-97.2370,0.827,1111122 
TCOON,ioos:station:TCOON:005:1,2016-02-10T07:18:00Z,27.6346,-97.2370,0.831,1111122 
TCOON,ioos:station:TCOON:005:1,2016-02-10T08:18:00Z,27.6346,-97.2370,0.841,1111122 
TCOON,ioos:station:TCOON:005:1,2016-02-10T09:36:00Z,27.6346,-97.2370,0.839,1111122 
TCOON,ioos:station:TCOON:005:1,2016-02-10T10:18:00Z,27.6346,-97.2370,0.839,1111122 
TCOON,ioos:station:TCOON:005:1,2016-02-10T11:18:00Z,27.6346,-97.2370,0.831,1111122 
TCOON,ioos:station:TCOON:005:1,2016-02-10T12:18:00Z,27.6346,-97.2370,0.825,1111122 
TCOON,ioos:station:TCOON:005:1,2016-02-10T13:18:00Z,27.6346,-97.2370,0.821,1111122 
TCOON,ioos:station:TCOON:005:1,2016-02-10T14:18:00Z,27.6346,-97.2370,0.822,1111122 
TCOON,ioos:station:TCOON:005:1,2016-02-10T15:24:00Z,27.6346,-97.2370,0.812,1111122 
TCOON,ioos:station:TCOON:005:1,2016-02-10T16:18:00Z,27.6346,-97.2370,0.788,1111122 
TCOON,ioos:station:TCOON:005:1,2016-02-10T17:18:00Z,27.6346,-97.2370,0.765,1111122 
TCOON,ioos:station:TCOON:005:1,2016-02-10T18:18:00Z,27.6346,-97.2370,0.753,1111122 
TCOON,ioos:station:TCOON:005:1,2016-02-10T19:24:00Z,27.6346,-97.2370,0.744,1111122 
TCOON,ioos:station:TCOON:005:1,2016-02-10T20:18:00Z,27.6346,-97.2370,0.74,1111122 
TCOON,ioos:station:TCOON:005:1,2016-02-10T21:24:00Z,27.6346,-97.2370,0.746,1111122 
TCOON,ioos:station:TCOON:005:1,2016-02-10T22:24:00Z,27.6346,-97.2370,0.753,1111122 
TCOON,ioos:station:TCOON:005:1,2016-02-10T23:24:00Z,27.6346,-97.2370,0.753,1111122 
TCOON,ioos:station:TCOON:005:1,2016-02-11T00:18:00Z,27.6346,-97.2370,0.75,1111122 
TCOON,ioos:station:TCOON:005:1,2016-02-11T01:18:00Z,27.6346,-97.2370,0.75,1111122 
TCOON,ioos:station:TCOON:005:1,2016-02-11T02:18:00Z,27.6346,-97.2370,0.744,1111122 
TCOON,ioos:station:TCOON:005:1,2016-02-11T03:18:00Z,27.6346,-97.2370,0.743,1111122 
TCOON,ioos:station:TCOON:005:1,2016-02-11T04:18:00Z,27.6346,-97.2370,0.746,1111122 
TCOON,ioos:station:TCOON:005:1,2016-02-11T05:18:00Z,27.6346,-97.2370,0.749,1111122 
TCOON,ioos:station:TCOON:005:1,2016-02-11T06:18:00Z,27.6346,-97.2370,0.753,1111122 
TCOON,ioos:station:TCOON:005:1,2016-02-11T07:18:00Z,27.6346,-97.2370,0.757,1111122 
TCOON,ioos:station:TCOON:005:1,2016-02-11T08:18:00Z,27.6346,-97.2370,0.762,1111122 
TCOON,ioos:station:TCOON:005:1,2016-02-11T09:42:00Z,27.6346,-97.2370,0.777,1111122 
TCOON,ioos:station:TCOON:005:1,2016-02-11T10:24:00Z,27.6346,-97.2370,0.781,1111122 
TCOON,ioos:station:TCOON:005:1,2016-02-11T11:24:00Z,27.6346,-97.2370,0.783,1111122 
TCOON,ioos:station:TCOON:005:1,2016-02-11T12:24:00Z,27.6346,-97.2370,0.783,1111122 
TCOON,ioos:station:TCOON:005:1,2016-02-11T13:24:00Z,27.6346,-97.2370,0.777,1111122 
TCOON,ioos:station:TCOON:005:1,2016-02-11T14:30:00Z,27.6346,-97.2370,0.78,1111122 
TCOON,ioos:station:TCOON:005:1,2016-02-11T15:30:00Z,27.6346,-97.2370,0.78,1111122 
TCOON,ioos:station:TCOON:005:1,2016-02-11T16:24:00Z,27.6346,-97.2370,0.771,1111122 
TCOON,ioos:station:TCOON:005:1,2016-02-11T17:18:00Z,27.6346,-97.2370,0.761,1111122 
TCOON,ioos:station:TCOON:005:1,2016-02-11T18:18:00Z,27.6346,-97.2370,0.729,1111122 
TCOON,ioos:station:TCOON:005:1,2016-02-11T19:24:00Z,27.6346,-97.2370,0.742,1111122 
TCOON,ioos:station:TCOON:005:1,2016-02-11T20:18:00Z,27.6346,-97.2370,0.741,1111122 
TCOON,ioos:station:TCOON:005:1,2016-02-11T21:18:00Z,27.6346,-97.2370,0.742,1111122 
TCOON,ioos:station:TCOON:005:1,2016-02-11T22:18:00Z,27.6346,-97.2370,0.749,1111122 
TCOON,ioos:station:TCOON:005:1,2016-02-11T23:18:00Z,27.6346,-97.2370,0.749,1111122 
TCOON,ioos:station:TCOON:005:1,2016-02-12T00:18:00Z,27.6346,-97.2370,0.755,1111122 
TCOON,ioos:station:TCOON:005:1,2016-02-12T01:18:00Z,27.6346,-97.2370,0.758,1111122 
TCOON,ioos:station:TCOON:005:1,2016-02-12T02:18:00Z,27.6346,-97.2370,0.768,1111122 
TCOON,ioos:station:TCOON:005:1,2016-02-12T03:18:00Z,27.6346,-97.2370,0.777,1111122 
TCOON,ioos:station:TCOON:005:1,2016-02-12T04:18:00Z,27.6346,-97.2370,0.775,1111122 
TCOON,ioos:station:TCOON:005:1,2016-02-12T05:18:00Z,27.6346,-97.2370,0.77,1111122 
TCOON,ioos:station:TCOON:005:1,2016-02-12T06:18:00Z,27.6346,-97.2370,0.77,1111122 
TCOON,ioos:station:TCOON:005:1,2016-02-12T07:18:00Z,27.6346,-97.2370,0.771,1111122 
TCOON,ioos:station:TCOON:005:1,2016-02-12T08:18:00Z,27.6346,-97.2370,0.774,1111122 
TCOON,ioos:station:TCOON:005:1,2016-02-12T09:36:00Z,27.6346,-97.2370,0.78,1111122 
TCOON,ioos:station:TCOON:005:1,2016-02-12T10:18:00Z,27.6346,-97.2370,0.781,1111122 
TCOON,ioos:station:TCOON:005:1,2016-02-12T11:18:00Z,27.6346,-97.2370,0.784,1111122 
TCOON,ioos:station:TCOON:005:1,2016-02-12T12:12:00Z,27.6346,-97.2370,0.788,1111122 
TCOON,ioos:station:TCOON:005:1,2016-02-12T13:18:00Z,27.6346,-97.2370,0.792,1111122 
TCOON,ioos:station:TCOON:005:1,2016-02-12T14:18:00Z,27.6346,-97.2370,0.793,1111122 
TCOON,ioos:station:TCOON:005:1,2016-02-12T15:18:00Z,27.6346,-97.2370,0.796,1111122 
TCOON,ioos:station:TCOON:005:1,2016-02-12T16:18:00Z,27.6346,-97.2370,0.789,1111122 
TCOON,ioos:station:TCOON:005:1,2016-02-12T17:18:00Z,27.6346,-97.2370,0.78,1111122 
TCOON,ioos:station:TCOON:005:1,2016-02-12T18:18:00Z,27.6346,-97.2370,0.775,1111122 
TCOON,ioos:station:TCOON:005:1,2016-02-12T19:18:00Z,27.6346,-97.2370,0.769,1111122 
TCOON,ioos:station:TCOON:005:1,2016-02-12T20:12:00Z,27.6346,-97.2370,0.765,1111122 
TCOON,ioos:station:TCOON:005:1,2016-02-12T21:18:00Z,27.6346,-97.2370,0.763,1111122 
TCOON,ioos:station:TCOON:005:1,2016-02-12T22:18:00Z,27.6346,-97.2370,0.765,1111122 
TCOON,ioos:station:TCOON:005:1,2016-02-12T23:18:00Z,27.6346,-97.2370,0.769,1111122 
TCOON,ioos:station:TCOON:005:1,2016-02-13T00:18:00Z,27.6346,-97.2370,0.769,1111122 
TCOON,ioos:station:TCOON:005:1,2016-02-13T01:18:00Z,27.6346,-97.2370,0.766,1111122 
TCOON,ioos:station:TCOON:005:1,2016-02-13T02:18:00Z,27.6346,-97.2370,0.762,1111122 
TCOON,ioos:station:TCOON:005:1,2016-02-13T03:18:00Z,27.6346,-97.2370,0.756,1111122 
TCOON,ioos:station:TCOON:005:1,2016-02-13T04:18:00Z,27.6346,-97.2370,0.753,1111122 
TCOON,ioos:station:TCOON:005:1,2016-02-13T05:12:00Z,27.6346,-97.2370,0.75,1111122 
TCOON,ioos:station:TCOON:005:1,2016-02-13T06:18:00Z,27.6346,-97.2370,0.75,1111122 
TCOON,ioos:station:TCOON:005:1,2016-02-13T07:18:00Z,27.6346,-97.2370,0.745,1111122 
TCOON,ioos:station:TCOON:005:1,2016-02-13T08:18:00Z,27.6346,-97.2370,0.741,1111122 
TCOON,ioos:station:TCOON:005:1,2016-02-13T09:24:00Z,27.6346,-97.2370,0.739,1111122 
TCOON,ioos:station:TCOON:005:1,2016-02-13T10:18:00Z,27.6346,-97.2370,0.743,1111122 
TCOON,ioos:station:TCOON:005:1,2016-02-13T11:18:00Z,27.6346,-97.2370,0.746,1111122 
TCOON,ioos:station:TCOON:005:1,2016-02-13T12:18:00Z,27.6346,-97.2370,0.752,1111122 
TCOON,ioos:station:TCOON:005:1,2016-02-13T13:18:00Z,27.6346,-97.2370,0.755,1111122 
TCOON,ioos:station:TCOON:005:1,2016-02-13T14:18:00Z,27.6346,-97.2370,0.761,1111122 
TCOON,ioos:station:TCOON:005:1,2016-02-13T15:18:00Z,27.6346,-97.2370,0.773,1111122 